SCP
-0 -0 -0 -0 -0 -0 0 0 0 0 0 0 0 0 0 0 0 0 0 0 0 0 0 0 0 0 0 0 0 0 0 0 0 0 0 0 0 0 0 0 0 0 0 0
-0 -0 -0 -0 -0 -0 0 0 0 0 0 0 0 0 0 0 0 0 0 0 0 0 0 0 0 0 0 0 0 -0 -0 -0 -0 -0 0 0 0 0 0 0 0 0 0 0
-0 -0 -0 -0 -0 -0 0 0 0 0 0 0 0 0 0 0 0 0 0 0 0 0 0 0 0 0 0 0 0 0 -0 -0 -0 -0 -0 -0 0 0 0 0 0 0 0 0
-0 -0 -0 -0 -0 0 0 0 0 0 0 0 0 0 0 0 0 0 0 0 0 0 0 0 0 0 0 0 0 0 -0 -0 -0 -0 -0 -0 -0 0 0 0 0 0 0 0
-0 -0 -0 -0 -0 0 0 0 0 0 0 0 0 0 0 0 0 0 0 0 0 0 0 0 0 0 0 0 -0 -0 -0 -0 -0 0 0 0 0 0 -0 0 0 0 0 0
-0 -0 -0 -0 -0 -0 -0 0 0 0 0 0 0 0 0 0 0 0 0 0 0 0 0 0 -0 -0 -0 -0 -0 -0 -0 0 0 0 0 0 -0 0 0 0 0 0 0 0
-0 -0 -0 -0 -0 -0 -0 -0 0 0 0 0 0 0 0 0 0 0 0 0 0 0 -0 0 0 0 0 -0 -0 -0 -0 0 0 0 0 0 0 0 0 0 -0 0 -0 -0
-0 -0 -0 -0 -0 -0 -0 -0 -0 0 0 0 0 0 0 0 0 0 0 0 0 -0 0 0 0 0 -0 0 -0 -0 -0 -0 -0 0 0 0 0 0 0 0 -0 0 0 0
-0 -0 -0 -0 -0 0 0 0 -0 -0 0 0 0 0 0 0 -0 -0 0 0 -0 0 0 0 0 0 -0 -0 -0 0 0 -0 0 -0 -0 0 0 -0 0 -0 0 0 0 0
-0 -0 -0 -0 0 0 0 0 0 0 0 0 0 0 0 0 -0 0 -0 -0 -0 -0 0 0 0 0 -0 -0 0 0 0 0 -0 -0 -0 0 0 -0 0 0 0 -0 -0 -0
-0 0 0 0 0 0 0 0 0 -0 -0 -0 -0 -0 -0 -0 -0 -0 -0 -0 0 0 0 0 -0 -0 0 -0 0 0 -0 -0 -0 -0 -0 0 -0 -0 0 0 0 0 0 0
0 0 0 0 0 0 0 0 -0 -0 -0 -0 -0 0 0 0 -0 0 -0 -0 0 0 0 -0 -0 -0 -0 -0 0 -0 -0 0 -0 0 0 0 0 0 0 0 0 0 0 0
0 0 0 0 0 0 0 0 -0 -0 -0 0 -0 -0 0 0 -0 -0 -0 -0 -0 -0 -0 -0 -0 0 0 -0 -0 -0 0 0 0 0 0 0 0 0 0 0 0 0 0 0
0 0 -0 -0 0 0 -0 0 -0 -0 -0 -0 0 0 0 0 -0 -0 -0 -0 -0 -0 0 0 0 -0 -0 -0 -0 0 -0 -0 0 0 0 0 0 0 0 0 0 0 -0 -0
-0 -0 -0 -0 -0 -0 -0 0 0 0 0 -0 -0 0 0 0 0 0 0 0 -0 0 0 0 0 0 0 0 0 0 0 0 0 0 0 0 0 0 0 0 0 0 0 0
-0 -0 -0 -0 -0 -0 -0 -0 0 0 0 0 0 0 0 0 0 0 0 0 0 0 0 0 0 0 0 0 0 0 0 0 0 0 -0 0 0 0 0 0 0 0 0 0
-0 -0 -0 -0 -0 0 0 0 0 0 0 0 0 0 0 0 0 0 0 0 0 0 0 0 0 0 0 0 0 0 0 0 0 0 0 0 0 0 0 0 0 0 -0 -0
-0 -0 0 0 0 0 0 0 0 0 0 0 0 0 0 0 0 0 0 0 0 0 0 0 0 0 0 0 0 0 0 0 0 0 0 0 0 0 -0 -0 0 0 -0 -0
-0 -0 0 0 0 0 0 0 0 0 0 0 0 0 0 0 0 0 0 0 -0 0 0 0 0 0 0 0 0 0 0 0 0 0 0 0 0 0 0 0 -0 -0 -0 -0
-0 0 0 0 0 -0 0 0 0 0 0 0 0 0 0 0 0 0 0 0 0 0 0 0 0 0 0 0 0 0 0 0 0 0 0 0 0 0 0 0 0 0 -0 -0
-0 0 0 0 -0 0 0 0 -0 -0 0 0 0 0 0 0 0 0 0 0 0 0 0 0 0 0 0 0 0 0 -0 0 0 0 0 0 0 0 0 0 0 0 -0 -0
0 0 0 0 0 -0 -0 0 0 -0 -0 -0 -0 0 0 0 0 0 0 0 0 0 0 0 0 0 0 0 -0 -0 0 -0 0 0 0 0 0 0 0 0 0 0 0 -0
0 0 0 0 0 -0 -0 -0 -0 -0 -0 -0 -0 -0 0 -0 0 0 0 -0 -0 0 0 -0 0 -0 -0 -0 -0 0 0 0 -0 0 0 0 0 0 0 0 0 0 0 0
0 0 0 0 0 0 0 -0 0 -0 0 0 0 0 -0 0 0 0 0 -0 0 -0 -0 -0 0 -0 -0 0 0 -0 0 -0 -0 0 0 0 0 0 0 0 0 0 0 0
0 0 0 0 0 0 0 0 -0 0 0 0 0 0 0 0 0 0 -0 0 -0 -0 -0 0 0 -0 0 0 -0 -0 -0 -0 0 0 0 0 0 0 0 0 0 0 0 0
-0 0 0 0 0 0 0 0 0 0 0 0 0 0 0 0 0 0 0 -0 -0 -0 -0 0 0 -0 0 -0 -0 -0 -0 -0 0 0 0 0 0 0 0 0 0 0 0 0
0 0 0 0 0 0 0 0 0 -0 0 -0 -0 0 0 0 0 0 0 0 -0 -0 0 -0 -0 -0 0 0 -0 -0 -0 0 0 -0 -0 0 0 0 0 0 0 0 0 0
Wind_Speed_500mb
66 68 65 47 15 15 15 5 5 39 7 18 11 7 7 8 16 21 16 12 14 9 14 9 9 7 7 18 13 7 13 3 8 21 27 15 18 14 15 8 12 11 11 16
65 67 66 57 21 8 15 17 17 39 11 10 13 26 27 24 15 19 8 12 13 13 8 8 12 6 2 19 9 7 9 3 12 8 10 10 11 24 18 22 21 28 16 13
64 66 64 68 24 14 9 11 5 30 48 34 27 20 12 12 18 27 20 11 13 5 10 10 9 7 5 15 9 16 3 2 5 8 19 24 37 39 36 22 14 27 46 56
64 66 64 66 54 8 9 14 10 8 7 23 32 18 10 15 8 11 24 7 12 6 6 5 6 9 11 12 13 8 5 5 6 25 32 26 31 37 37 37 33 34 56 57
65 63 66 64 61 30 23 16 16 34 17 17 30 18 10 13 10 10 8 5 9 4 5 6 4 7 4 5 11 5 2 6 13 22 17 19 34 29 26 30 34 38 50 55
61 61 63 64 63 48 58 53 39 20 19 12 11 8 6 5 12 10 12 4 2 4 2 8 14 14 13 11 7 2 3 11 18 10 26 32 6 10 12 20 34 42 44 54
54 57 56 54 54 46 46 48 37 25 14 17 15 22 22 15 8 9 13 10 4 5 20 8 16 14 9 7 6 9 5 14 4 11 21 9 8 2 8 38 50 43 47 45
49 52 50 51 44 35 37 44 37 21 15 29 29 23 13 18 15 17 16 9 11 19 4 6 8 5 7 8 9 2 9 7 9 7 18 25 5 9 27 46 79 53 37 23
45 49 47 50 41 27 32 41 42 26 21 14 10 17 13 9 6 4 8 7 17 7 5 5 5 6 3 3 6 6 11 3 6 11 10 9 16 42 75 61 29 13 40 49
40 45 45 45 44 31 32 55 54 65 53 29 24 18 11 13 7 4 3 8 13 19 5 7 6 5 4 5 11 14 10 8 10 14 7 11 25 68 59 15 22 88 86 75
33 36 40 39 40 31 25 49 48 62 50 42 38 35 35 19 14 6 7 4 16 11 8 5 5 4 8 5 7 10 8 12 8 8 7 9 59 39 20 36 61 73 39 18
33 31 29 33 31 27 37 52 24 24 43 41 41 41 40 39 29 7 17 10 6 8 6 6 4 4 6 9 6 8 6 9 9 6 8 41 46 43 49 39 42 58 64 59
31 29 25 26 27 28 30 51 54 61 51 41 29 28 33 36 41 24 9 7 6 10 10 8 5 10 2 5 10 9 11 12 6 16 17 41 38 51 50 47 55 57 59 63
30 25 27 27 19 28 25 35 16 14 14 12 19 29 36 34 31 27 31 30 27 24 13 10 6 5 4 3 3 4 11 19 15 7 12 28 41 49 44 39 42 43 46 53
26 26 24 23 23 10 21 13 12 11 7 10 10 23 31 26 28 29 23 17 16 11 10 9 6 4 3 4 2 4 17 7 7 6 28 14 33 39 36 38 40 42 45 46
21 25 27 28 28 11 11 11 23 22 25 9 6 9 25 20 18 20 27 23 19 16 8 7 6 6 5 4 4 17 24 13 18 8 20 18 24 33 33 31 32 34 35 38
17 18 21 27 42 34 20 13 10 11 8 7 8 5 9 18 16 15 17 21 17 12 8 7 4 6 7 2 5 27 18 7 7 13 24 22 28 22 31 33 30 32 34 35
12 12 17 17 20 30 39 36 23 11 11 10 6 4 4 24 11 5 10 6 8 14 6 5 9 5 5 4 29 25 20 11 14 18 21 22 24 26 28 29 30 27 30 33
12 10 12 11 11 12 17 21 27 32 16 9 9 6 4 18 16 9 5 6 7 6 8 7 8 5 8 15 36 22 17 7 11 15 15 19 25 21 24 29 27 25 29 33
9 6 6 7 10 9 10 8 8 13 15 13 9 10 5 12 12 9 2 6 4 4 8 4 7 2 34 43 25 13 11 10 12 11 18 27 29 20 20 24 27 24 23 26
8 6 7 8 13 10 8 9 13 14 8 10 11 9 7 15 7 6 8 3 2 6 6 3 7 12 47 42 34 12 5 4 5 8 13 15 18 17 16 22 24 24 26 30
12 8 10 10 11 11 10 7 7 11 6 12 9 10 7 6 6 4 6 3 3 7 8 5 7 11 47 48 50 22 11 3 3 3 10 16 21 16 15 20 21 22 24 27
9 7 6 10 11 16 9 9 6 6 11 13 17 10 9 7 7 2 4 6 6 2 7 2 6 34 52 39 53 29 19 18 8 5 12 18 20 14 15 20 21 21 24 26
8 8 10 7 7 7 2 6 3 4 7 14 14 7 5 6 5 5 6 6 4 6 6 3 15 37 41 35 33 39 27 22 27 18 15 15 18 16 17 18 19 19 21 22
8 9 7 6 4 4 2 4 6 5 10 12 7 5 4 8 5 7 3 5 7 4 2 4 25 31 35 32 33 29 20 19 22 22 17 11 9 11 9 7 8 10 12 14
8 9 7 4 4 2 2 4 7 7 8 8 2 3 3 8 5 7 5 5 3 3 6 14 22 20 27 33 37 32 23 22 20 23 16 15 10 14 17 17 12 10 9 4
7 6 7 4 2 3 6 8 8 11 6 2 2 3 6 1 2 4 0 3 3 3 10 12 12 15 22 31 36 34 23 18 20 12 18 20 18 20 24 27 22 23 26 19
Wind_Direction_500mb
11 10 12 9 32 163 180 142 58 350 128 53 47 66 90 90 21 47 68 67 64 62 37 66 84 81 66 29 355 25 18 62 309 298 321 58 69 43 33 347 314 294 274 254
16 15 16 16 30 135 152 90 40 17 125 107 88 95 84 63 46 32 63 50 53 54 56 107 100 41 64 13 24 27 357 85 312 330 168 86 5 336 324 313 276 261 278 253
21 20 23 22 26 53 141 96 60 31 61 84 107 110 62 106 49 48 57 58 55 88 50 41 133 67 67 4 38 77 347 124 3 309 278 281 291 296 296 283 270 285 258 291
25 24 25 31 24 42 93 69 69 51 53 55 83 92 79 91 88 65 36 73 47 47 72 85 69 48 357 40 40 24 29 27 324 291 286 280 271 279 283 282 276 268 290 295
25 28 29 32 36 45 107 105 116 89 85 77 72 37 38 85 84 29 38 59 354 31 89 44 60 26 13 13 357 52 18 341 314 303 305 301 297 291 275 280 293 287 289 288
25 30 32 36 41 50 86 99 113 99 42 60 77 37 76 75 116 77 49 333 112 123 62 317 287 265 256 266 302 347 309 345 331 306 336 310 225 9 9 335 323 305 290 293
26 29 36 39 41 54 90 91 94 90 74 77 78 99 82 71 53 123 23 65 91 25 307 92 94 96 113 151 196 224 310 336 312 302 332 323 81 222 306 327 304 304 286 284
29 29 36 40 50 75 79 93 92 93 99 94 78 74 81 63 83 83 65 44 356 331 66 127 133 114 162 55 11 284 220 325 316 296 320 290 31 28 343 328 304 306 281 290
34 34 37 39 47 71 87 93 100 113 108 43 52 65 47 59 70 98 39 25 9 36 69 76 73 66 1 357 352 59 356 237 252 323 322 313 25 346 337 316 286 22 328 318
37 34 35 34 43 69 89 90 92 97 89 66 61 52 40 34 56 68 22 358 12 19 58 70 63 93 311 2 3 353 1 341 332 332 298 289 2 343 324 317 322 309 305 295
31 26 28 36 46 85 96 88 91 103 99 87 75 64 55 50 37 27 355 194 24 35 65 59 56 45 52 339 18 357 340 330 354 308 287 318 2 339 347 312 312 334 340 357
30 28 25 34 55 87 110 108 90 101 101 103 74 63 54 43 36 73 44 90 77 68 106 84 118 89 42 343 67 6 20 3 310 289 324 342 342 328 332 351 353 10 37 55
26 28 32 40 66 79 109 117 109 96 94 75 72 59 58 54 43 47 108 69 90 83 90 120 109 80 28 27 57 319 2 9 300 317 31 341 349 4 27 30 33 34 42 51
29 46 47 48 66 75 132 141 132 95 94 88 58 66 55 45 34 59 80 109 116 110 90 84 84 80 44 14 347 4 3 302 321 278 357 340 356 5 358 12 16 22 39 47
48 47 42 38 36 81 60 117 171 128 97 119 124 53 40 41 40 58 74 88 99 82 71 68 69 76 359 25 294 350 327 5 340 355 331 321 336 358 19 28 36 44 43 41
56 48 44 42 34 99 103 79 77 96 109 106 106 83 37 33 47 56 62 70 74 83 82 67 74 81 29 40 42 352 359 23 53 356 5 16 38 38 40 44 42 47 46 42
59 58 49 56 54 69 79 82 79 69 85 91 107 84 14 32 43 47 50 62 59 57 74 52 52 39 43 40 11 353 6 36 29 10 15 26 26 19 39 42 49 51 51 54
67 83 52 61 72 68 65 65 61 58 64 68 75 41 53 17 21 64 37 60 58 41 69 24 23 1 33 48 352 355 5 32 33 42 31 28 27 32 32 31 39 46 47 49
90 79 46 55 47 49 54 64 58 53 59 84 63 20 355 359 16 18 35 57 79 57 50 38 29 347 37 326 339 343 348 5 35 33 33 27 23 29 32 33 35 42 41 42
78 47 35 43 22 38 40 37 34 34 41 55 52 1 350 354 2 24 54 51 86 80 42 78 32 93 354 353 2 339 17 32 62 34 19 7 19 23 31 35 39 43 48 50
54 43 56 50 37 35 48 50 38 6 50 28 356 1 334 3 11 3 28 92 11 71 18 36 10 4 348 10 16 16 6 19 58 47 22 15 10 18 30 33 44 52 48 49
73 88 68 37 30 31 61 37 20 31 24 352 346 336 342 338 358 336 14 68 51 63 349 51 8 350 349 2 358 4 215 356 299 316 340 355 4 13 27 37 57 66 63 62
54 49 51 21 18 47 46 18 18 1 349 356 337 338 345 347 360 299 359 63 57 53 48 71 274 340 354 4 16 59 123 57 33 359 24 16 18 33 51 50 71 83 85 80
49 44 34 45 38 62 105 164 199 303 291 338 334 329 346 343 350 1 67 59 61 68 48 339 323 342 350 14 25 32 47 27 35 34 34 39 45 71 79 74 84 97 100 99
62 50 55 62 87 135 201 285 280 270 316 341 335 329 0 6 50 28 84 75 74 87 178 269 324 352 17 22 18 21 19 35 41 3 21 41 50 43 46 63 90 103 106 98
61 62 92 120 139 90 16 340 343 340 325 327 5 342 42 44 20 48 33 90 132 123 235 315 345 16 21 20 13 8 3 11 7 20 19 355 338 350 343 308 282 273 265 233
66 79 76 73 16 316 341 335 333 327 331 359 73 55 47 348 95 89 47 141 116 298 323 353 10 17 18 14 10 9 11 17 14 19 22 11 353 354 349 352 342 281 258 253
Wind_Speed_850mb
66 68 65 47 15 15 15 5 5 39 7 18 11 7 7 8 16 21 16 12 14 9 14 9 9 7 7 18 13 7 13 3 8 21 27 15 18 14 15 8 12 11 11 16
65 67 66 57 21 8 15 17 17 39 11 10 13 26 27 24 15 19 8 12 13 13 8 8 12 6 2 19 9 7 9 3 12 8 10 10 11 24 18 22 21 28 16 13
64 66 64 68 24 14 9 11 5 30 48 34 27 20 12 12 18 27 20 11 13 5 10 10 9 7 5 15 9 16 3 2 5 8 19 24 37 39 36 22 14 27 46 56
64 66 64 66 54 8 9 14 10 8 7 23 32 18 10 15 8 11 24 7 12 6 6 5 6 9 11 12 13 8 5 5 6 25 32 26 31 37 37 37 33 34 56 57
65 63 66 64 61 30 23 16 16 34 17 17 30 18 10 13 10 10 8 5 9 4 5 6 4 7 4 5 11 5 2 6 13 22 17 19 34 29 26 30 34 38 50 55
61 61 63 64 63 48 58 53 39 20 19 12 11 8 6 5 12 10 12 4 2 4 2 8 14 14 13 11 7 2 3 11 18 10 26 32 6 10 12 20 34 42 44 54
54 57 56 54 54 46 46 48 37 25 14 17 15 22 22 15 8 9 13 10 4 5 20 8 16 14 9 7 6 9 5 14 4 11 21 9 8 2 8 38 50 43 47 45
49 52 50 51 44 35 37 44 37 21 15 29 29 23 13 18 15 17 16 9 11 19 4 6 8 5 7 8 9 2 9 7 9 7 18 25 5 9 27 46 79 53 37 23
45 49 47 50 41 27 32 41 42 26 21 14 10 17 13 9 6 4 8 7 17 7 5 5 5 6 3 3 6 6 11 3 6 11 10 9 16 42 75 61 29 13 40 49
40 45 45 45 44 31 32 55 54 65 53 29 24 18 11 13 7 4 3 8 13 19 5 7 6 5 4 5 11 14 10 8 10 14 7 11 25 68 59 15 22 88 86 75
33 36 40 39 40 31 25 49 48 62 50 42 38 35 35 19 14 6 7 4 16 11 8 5 5 4 8 5 7 10 8 12 8 8 7 9 59 39 20 36 61 73 39 18
33 31 29 33 31 27 37 52 24 24 43 41 41 41 40 39 29 7 17 10 6 8 6 6 4 4 6 9 6 8 6 9 9 6 8 41 46 43 49 39 42 58 64 59
31 29 25 26 27 28 30 51 54 61 51 41 29 28 33 36 41 24 9 7 6 10 10 8 5 10 2 5 10 9 11 12 6 16 17 41 38 51 50 47 55 57 59 63
30 25 27 27 19 28 25 35 16 14 14 12 19 29 36 34 31 27 31 30 27 24 13 10 6 5 4 3 3 4 11 19 15 7 12 28 41 49 44 39 42 43 46 53
26 26 24 23 23 10 21 13 12 11 7 10 10 23 31 26 28 29 23 17 16 11 10 9 6 4 3 4 2 4 17 7 7 6 28 14 33 39 36 38 40 42 45 46
21 25 27 28 28 11 11 11 23 22 25 9 6 9 25 20 18 20 27 23 19 16 8 7 6 6 5 4 4 17 24 13 18 8 20 18 24 33 33 31 32 34 35 38
17 18 21 27 42 34 20 13 10 11 8 7 8 5 9 18 16 15 17 21 17 12 8 7 4 6 7 2 5 27 18 7 7 13 24 22 28 22 31 33 30 32 34 35
12 12 17 17 20 30 39 36 23 11 11 10 6 4 4 24 11 5 10 6 8 14 6 5 9 5 5 4 29 25 20 11 14 18 21 22 24 26 28 29 30 27 30 33
12 10 12 11 11 12 17 21 27 32 16 9 9 6 4 18 16 9 5 6 7 6 8 7 8 5 8 15 36 22 17 7 11 15 15 19 25 21 24 29 27 25 29 33
9 6 6 7 10 9 10 8 8 13 15 13 9 10 5 12 12 9 2 6 4 4 8 4 7 2 34 43 25 13 11 10 12 11 18 27 29 20 20 24 27 24 23 26
8 6 7 8 13 10 8 9 13 14 8 10 11 9 7 15 7 6 8 3 2 6 6 3 7 12 47 42 34 12 5 4 5 8 13 15 18 17 16 22 24 24 26 30
12 8 10 10 11 11 10 7 7 11 6 12 9 10 7 6 6 4 6 3 3 7 8 5 7 11 47 48 50 22 11 3 3 3 10 16 21 16 15 20 21 22 24 27
9 7 6 10 11 16 9 9 6 6 11 13 17 10 9 7 7 2 4 6 6 2 7 2 6 34 52 39 53 29 19 18 8 5 12 18 20 14 15 20 21 21 24 26
8 8 10 7 7 7 2 6 3 4 7 14 14 7 5 6 5 5 6 6 4 6 6 3 15 37 41 35 33 39 27 22 27 18 15 15 18 16 17 18 19 19 21 22
8 9 7 6 4 4 2 4 6 5 10 12 7 5 4 8 5 7 3 5 7 4 2 4 25 31 35 32 33 29 20 19 22 22 17 11 9 11 9 7 8 10 12 14
8 9 7 4 4 2 2 4 7 7 8 8 2 3 3 8 5 7 5 5 3 3 6 14 22 20 27 33 37 32 23 22 20 23 16 15 10 14 17 17 12 10 9 4
7 6 7 4 2 3 6 8 8 11 6 2 2 3 6 1 2 4 0 3 3 3 10 12 12 15 22 31 36 34 23 18 20 12 18 20 18 20 24 27 22 23 26 19
Wind_Direction_850mb
11 10 12 9 32 163 180 142 58 350 128 53 47 66 90 90 21 47 68 67 64 62 37 66 84 81 66 29 355 25 18 62 309 298 321 58 69 43 33 347 314 294 274 254
16 15 16 16 30 135 152 90 40 17 125 107 88 95 84 63 46 32 63 50 53 54 56 107 100 41 64 13 24 27 357 85 312 330 168 86 5 336 324 313 276 261 278 253
21 20 23 22 26 53 141 96 60 31 61 84 107 110 62 106 49 48 57 58 55 88 50 41 133 67 67 4 38 77 347 124 3 309 278 281 291 296 296 283 270 285 258 291
25 24 25 31 24 42 93 69 69 51 53 55 83 92 79 91 88 65 36 73 47 47 72 85 69 48 357 40 40 24 29 27 324 291 286 280 271 279 283 282 276 268 290 295
25 28 29 32 36 45 107 105 116 89 85 77 72 37 38 85 84 29 38 59 354 31 89 44 60 26 13 13 357 52 18 341 314 303 305 301 297 291 275 280 293 287 289 288
25 30 32 36 41 50 86 99 113 99 42 60 77 37 76 75 116 77 49 333 112 123 62 317 287 265 256 266 302 347 309 345 331 306 336 310 225 9 9 335 323 305 290 293
26 29 36 39 41 54 90 91 94 90 74 77 78 99 82 71 53 123 23 65 91 25 307 92 94 96 113 151 196 224 310 336 312 302 332 323 81 222 306 327 304 304 286 284
29 29 36 40 50 75 79 93 92 93 99 94 78 74 81 63 83 83 65 44 356 331 66 127 133 114 162 55 11 284 220 325 316 296 320 290 31 28 343 328 304 306 281 290
34 34 37 39 47 71 87 93 100 113 108 43 52 65 47 59 70 98 39 25 9 36 69 76 73 66 1 357 352 59 356 237 252 323 322 313 25 346 337 316 286 22 328 318
37 34 35 34 43 69 89 90 92 97 89 66 61 52 40 34 56 68 22 358 12 19 58 70 63 93 311 2 3 353 1 341 332 332 298 289 2 343 324 317 322 309 305 295
31 26 28 36 46 85 96 88 91 103 99 87 75 64 55 50 37 27 355 194 24 35 65 59 56 45 52 339 18 357 340 330 354 308 287 318 2 339 347 312 312 334 340 357
30 28 25 34 55 87 110 108 90 101 101 103 74 63 54 43 36 73 44 90 77 68 106 84 118 89 42 343 67 6 20 3 310 289 324 342 342 328 332 351 353 10 37 55
26 28 32 40 66 79 109 117 109 96 94 75 72 59 58 54 43 47 108 69 90 83 90 120 109 80 28 27 57 319 2 9 300 317 31 341 349 4 27 30 33 34 42 51
29 46 47 48 66 75 132 141 132 95 94 88 58 66 55 45 34 59 80 109 116 110 90 84 84 80 44 14 347 4 3 302 321 278 357 340 356 5 358 12 16 22 39 47
48 47 42 38 36 81 60 117 171 128 97 119 124 53 40 41 40 58 74 88 99 82 71 68 69 76 359 25 294 350 327 5 340 355 331 321 336 358 19 28 36 44 43 41
56 48 44 42 34 99 103 79 77 96 109 106 106 83 37 33 47 56 62 70 74 83 82 67 74 81 29 40 42 352 359 23 53 356 5 16 38 38 40 44 42 47 46 42
59 58 49 56 54 69 79 82 79 69 85 91 107 84 14 32 43 47 50 62 59 57 74 52 52 39 43 40 11 353 6 36 29 10 15 26 26 19 39 42 49 51 51 54
67 83 52 61 72 68 65 65 61 58 64 68 75 41 53 17 21 64 37 60 58 41 69 24 23 1 33 48 352 355 5 32 33 42 31 28 27 32 32 31 39 46 47 49
90 79 46 55 47 49 54 64 58 53 59 84 63 20 355 359 16 18 35 57 79 57 50 38 29 347 37 326 339 343 348 5 35 33 33 27 23 29 32 33 35 42 41 42
78 47 35 43 22 38 40 37 34 34 41 55 52 1 350 354 2 24 54 51 86 80 42 78 32 93 354 353 2 339 17 32 62 34 19 7 19 23 31 35 39 43 48 50
54 43 56 50 37 35 48 50 38 6 50 28 356 1 334 3 11 3 28 92 11 71 18 36 10 4 348 10 16 16 6 19 58 47 22 15 10 18 30 33 44 52 48 49
73 88 68 37 30 31 61 37 20 31 24 352 346 336 342 338 358 336 14 68 51 63 349 51 8 350 349 2 358 4 215 356 299 316 340 355 4 13 27 37 57 66 63 62
54 49 51 21 18 47 46 18 18 1 349 356 337 338 345 347 360 299 359 63 57 53 48 71 274 340 354 4 16 59 123 57 33 359 24 16 18 33 51 50 71 83 85 80
49 44 34 45 38 62 105 164 199 303 291 338 334 329 346 343 350 1 67 59 61 68 48 339 323 342 350 14 25 32 47 27 35 34 34 39 45 71 79 74 84 97 100 99
62 50 55 62 87 135 201 285 280 270 316 341 335 329 0 6 50 28 84 75 74 87 178 269 324 352 17 22 18 21 19 35 41 3 21 41 50 43 46 63 90 103 106 98
61 62 92 120 139 90 16 340 343 340 325 327 5 342 42 44 20 48 33 90 132 123 235 315 345 16 21 20 13 8 3 11 7 20 19 355 338 350 343 308 282 273 265 233
66 79 76 73 16 316 341 335 333 327 331 359 73 55 47 348 95 89 47 141 116 298 323 353 10 17 18 14 10 9 11 17 14 19 22 11 353 354 349 352 342 281 258 253